Location: Unspecified
(0.0000°N, 0.0000°E)
Time: 23:20:58
(UTC+00:00)

Altair - All Passes

Search period start: 11 February 2016 00:00
Search period end: 21 February 2016 00:00
Orbit: 1501 x 1683 km, 47.2° (Epoch: 10 February)

Date Brightness Start Highest point End Pass type
(mag) Time Alt. Az. Time Alt. Az. Time Alt. Az.
11 Feb - 01:02:46 10° N 01:08:22 16° NE 01:13:51 10° E visible
11 Feb - 03:03:35 10° NW 03:13:29 83° NE 03:23:01 10° SE visible
11 Feb - 05:11:51 10° W 05:18:12 19° SW 05:24:27 10° S visible
11 Feb - 13:49:29 10° SSW 13:57:48 35° SE 14:06:20 10° ENE daylight
11 Feb - 15:53:17 10° WSW 16:02:20 49° NW 16:11:46 10° NNE daylight
12 Feb - 00:38:25 10° NNE 00:43:05 14° NE 00:47:39 10° ENE night (unlit)
12 Feb - 02:38:26 10° NW 02:48:20 75° NE 02:57:51 10° SE visible
12 Feb - 04:46:00 10° W 04:53:00 22° SW 04:59:51 10° S visible
12 Feb - 13:24:40 10° S 13:32:38 31° SE 13:40:47 10° ENE daylight
12 Feb - 15:28:00 10° SW 15:37:11 55° NW 15:46:44 10° NNE daylight
13 Feb - 00:14:23 10° NNE 00:17:46 12° NE 00:21:07 10° ENE night (unlit)
13 Feb - 02:13:19 10° NNW 02:23:11 68° NE 02:32:40 10° SE visible
13 Feb - 04:20:15 10° W 04:27:47 25° SW 04:35:11 10° S visible
13 Feb - 12:59:54 10° S 13:07:28 27° SE 13:15:11 10° ENE daylight
13 Feb - 15:02:45 10° SW 15:12:01 62° NW 15:21:40 10° NNE daylight
13 Feb - 17:16:20 10° NW 17:17:31 10° NW 17:18:44 10° NW daylight
13 Feb - 23:51:43 10° NE 23:52:27 10° NE 23:53:09 10° NE night (unlit)
14 Feb - 01:48:13 10° NNW 01:58:01 61° NE 02:07:26 10° SE visible
14 Feb - 03:54:35 10° WNW 04:02:36 29° SW 04:10:26 10° S visible
14 Feb - 12:35:11 10° S 12:42:17 24° SE 12:49:30 10° E daylight
14 Feb - 14:37:32 10° SW 14:46:52 69° NW 14:56:34 10° NNE daylight
14 Feb - 16:48:47 10° WNW 16:52:12 12° NW 16:55:40 10° NNW daylight
15 Feb - 01:23:09 10° NNW 01:32:51 54° NE 01:42:10 10° SE visible
15 Feb - 03:28:59 10° WNW 03:37:25 33° SW 03:45:39 10° S visible
15 Feb - 12:10:32 10° S 12:17:06 21° SE 12:23:45 10° E daylight
15 Feb - 14:12:21 10° SW 14:21:43 77° NW 14:31:27 10° NE daylight
15 Feb - 16:22:19 10° WNW 16:26:54 14° NW 16:31:35 10° NNW daylight
16 Feb - 00:58:07 10° NNW 01:07:40 48° NE 01:16:51 10° ESE visible
16 Feb - 03:03:27 10° WNW 03:12:15 37° SW 03:20:49 10° SSE visible
16 Feb - 11:45:59 10° S 11:51:53 18° SE 11:57:51 10° E daylight
16 Feb - 13:47:13 10° SW 13:56:35 85° NW 14:06:18 10° NE daylight
16 Feb - 15:56:11 10° W 16:01:38 16° NW 16:07:12 10° N daylight
17 Feb - 00:33:07 10° NNW 00:42:28 43° NE 00:51:31 10° ESE night (unlit)
17 Feb - 02:37:58 10° WNW 02:47:05 42° SW 02:55:56 10° SSE visible
17 Feb - 11:21:34 10° SSE 11:26:40 16° SE 11:31:49 10° E daylight
17 Feb - 13:22:06 10° SW 13:31:27 86° SE 13:41:08 10° NE daylight
17 Feb - 15:30:15 10° W 15:36:22 19° NW 15:42:40 10° N daylight
18 Feb - 00:08:09 10° NNW 00:17:17 39° NE 00:26:07 10° ESE night (unlit)
18 Feb - 02:12:32 10° WNW 02:21:55 47° SW 02:31:01 10° SSE visible
18 Feb - 10:57:21 10° SSE 11:01:26 13° SE 11:05:33 10° ESE daylight
18 Feb - 12:57:01 10° SW 13:06:19 78° SE 13:15:56 10° NE daylight
18 Feb - 15:04:27 10° W 15:11:08 21° NW 15:18:01 10° N daylight
18 Feb - 23:43:14 10° NNW 23:52:04 35° NE 00:00:40 10° ESE night (unlit)
19 Feb - 01:47:09 10° NW 01:56:45 53° SW 02:06:04 10° SSE visible
19 Feb - 10:33:37 10° SSE 10:36:11 11° SE 10:38:46 10° ESE daylight
19 Feb - 12:31:58 10° SSW 12:41:11 70° SE 12:50:42 10° NE daylight
19 Feb - 14:38:45 10° W 14:45:54 24° NW 14:53:17 10° N daylight
19 Feb - 23:18:21 10° N 23:26:51 31° NE 23:35:09 10° ESE night (unlit)
20 Feb - 01:21:48 10° NW 01:31:35 59° SW 01:41:04 10° SSE visible
20 Feb - 12:06:57 10° SSW 12:16:04 62° SE 12:25:26 10° NE daylight
20 Feb - 14:13:09 10° WSW 14:20:42 27° NW 14:28:30 10° N daylight
20 Feb - 22:53:30 10° N 23:01:38 27° NE 23:09:34 10° ESE night (unlit)
